Time,TemperatureF,DewpointF,PressureIn,WindDirection,WindDirectionDegrees,WindSpeedMPH,WindSpeedGustMPH,Humidity,HourlyPrecipIn,Conditions,Clouds,dailyrainin,SoftwareType,DateUTC
2013-07-22 00:04:00,74.3,50.4,29.72,NNE,26,0.0,0.0,43,0.00,,---,0.00,VWS V14.01,2013-07-22 07:04:00,
2013-07-22 00:09:00,74.0,51.3,29.72,NNE,26,0.0,0.0,45,0.00,,---,0.00,VWS V14.01,2013-07-22 07:09:00,
2013-07-22 00:14:00,73.7,51.7,29.72,NNE,26,0.0,0.0,46,0.00,,---,0.00,VWS V14.01,2013-07-22 07:14:00,
2013-07-22 00:19:00,73.2,51.2,29.72,NNE,26,0.0,0.0,46,0.00,,---,0.00,VWS V14.01,2013-07-22 07:19:00,
2013-07-22 00:24:00,72.9,50.9,29.72,NNE,27,0.0,0.0,46,0.00,,---,0.00,VWS V14.01,2013-07-22 07:24:00,
2013-07-22 00:29:00,72.6,50.7,29.72,NNE,26,0.0,0.0,46,0.00,,---,0.00,VWS V14.01,2013-07-22 07:29:00,
2013-07-22 00:34:00,72.4,50.5,29.72,NNE,24,0.0,0.0,46,0.00,,---,0.00,VWS V14.01,2013-07-22 07:34:00,
2013-07-22 00:39:00,72.2,50.9,29.72,NNE,26,0.0,0.0,47,0.00,,---,0.00,VWS V14.01,2013-07-22 07:39:00,
2013-07-22 00:44:00,72.2,50.9,29.72,NE,43,0.0,0.0,47,0.00,,---,0.00,VWS V14.01,2013-07-22 07:44:00,
2013-07-22 00:49:00,72.2,51.4,29.72,NE,42,0.0,0.0,48,0.00,,---,0.00,VWS V14.01,2013-07-22 07:49:00,
2013-07-22 00:55:00,72.2,51.4,29.73,NE,42,0.0,0.0,48,0.00,,---,0.00,VWS V14.01,2013-07-22 07:55:00,
2013-07-22 01:00:00,72.2,51.4,29.73,NE,42,0.0,0.0,48,0.00,,---,0.00,VWS V14.01,2013-07-22 08:00:00,
2013-07-22 01:05:00,72.0,51.3,29.73,NE,43,0.0,0.0,48,0.00,,---,0.00,VWS V14.01,2013-07-22 08:05:00,
2013-07-22 01:10:00,71.8,51.1,29.73,NE,42,0.0,0.0,48,0.00,,---,0.00,VWS V14.01,2013-07-22 08:10:00,
2013-07-22 01:15:00,71.6,51.5,29.73,NE,43,0.0,0.0,49,0.00,,---,0.00,VWS V14.01,2013-07-22 08:15:00,
2013-07-22 01:20:00,71.4,51.3,29.72,NE,42,0.0,0.0,49,0.00,,---,0.00,VWS V14.01,2013-07-22 08:20:00,
2013-07-22 01:25:00,71.1,51.0,29.72,NE,42,0.0,0.0,49,0.00,,---,0.00,VWS V14.01,2013-07-22 08:25:00,
2013-07-22 01:30:00,70.8,50.7,29.72,NE,43,0.0,0.0,49,0.00,,---,0.00,VWS V14.01,2013-07-22 08:30:00,
2013-07-22 01:35:00,70.6,51.1,29.72,NE,42,0.0,0.0,50,0.00,,---,0.00,VWS V14.01,2013-07-22 08:35:00,
2013-07-22 01:40:00,70.4,50.3,29.73,NE,42,0.0,0.0,49,0.00,,---,0.00,VWS V14.01,2013-07-22 08:40:00,
2013-07-22 01:45:00,70.3,51.3,29.73,NE,42,0.0,0.0,51,0.00,,---,0.00,VWS V14.01,2013-07-22 08:45:00,
2013-07-22 01:50:00,70.1,51.2,29.73,NE,42,0.0,0.0,51,0.00,,---,0.00,VWS V14.01,2013-07-22 08:50:00,
2013-07-22 01:55:00,69.9,51.5,29.73,NE,42,0.0,0.0,52,0.00,,---,0.00,VWS V14.01,2013-07-22 08:55:00,
2013-07-22 02:00:00,69.8,51.4,29.72,NE,42,0.0,0.0,52,0.00,,---,0.00,VWS V14.01,2013-07-22 09:00:00,
2013-07-22 02:05:00,69.7,51.8,29.73,NE,42,0.0,0.0,53,0.00,,---,0.00,VWS V14.01,2013-07-22 09:05:00,
2013-07-22 02:10:00,69.5,51.6,29.73,NE,42,0.0,0.0,53,0.00,,---,0.00,VWS V14.01,2013-07-22 09:10:00,
2013-07-22 02:15:00,69.3,51.5,29.73,NE,42,0.0,0.0,53,0.00,,---,0.00,VWS V14.01,2013-07-22 09:15:00,
2013-07-22 02:21:00,69.1,52.3,29.73,NE,42,0.0,0.0,55,0.00,,---,0.00,VWS V14.01,2013-07-22 09:21:00,
2013-07-22 02:26:00,68.9,52.1,29.73,NE,43,0.0,0.0,55,0.00,,---,0.00,VWS V14.01,2013-07-22 09:26:00,
2013-07-22 02:31:00,68.8,52.5,29.73,NE,42,0.0,0.0,56,0.00,,---,0.00,VWS V14.01,2013-07-22 09:31:00,
2013-07-22 02:36:00,68.6,52.3,29.73,NE,42,0.0,0.0,56,0.00,,---,0.00,VWS V14.01,2013-07-22 09:36:00,
2013-07-22 02:41:00,68.5,52.7,29.73,NE,42,0.0,0.0,57,0.00,,---,0.00,VWS V14.01,2013-07-22 09:41:00,
2013-07-22 02:46:00,68.4,52.6,29.73,NE,42,0.0,0.0,57,0.00,,---,0.00,VWS V14.01,2013-07-22 09:46:00,
2013-07-22 02:51:00,68.3,52.5,29.73,NE,43,0.0,0.0,57,0.00,,---,0.00,VWS V14.01,2013-07-22 09:51:00,
2013-07-22 02:56:00,68.3,53.0,29.73,NE,42,0.0,0.0,58,0.00,,---,0.00,VWS V14.01,2013-07-22 09:56:00,
2013-07-22 03:01:00,68.2,53.3,29.73,NE,42,0.0,0.0,59,0.00,,---,0.00,VWS V14.01,2013-07-22 10:01:00,
2013-07-22 03:06:00,68.2,53.3,29.73,NE,42,0.0,0.0,59,0.00,,---,0.00,VWS V14.01,2013-07-22 10:06:00,
2013-07-22 03:11:00,68.0,53.6,29.73,NE,43,0.0,0.0,60,0.00,,---,0.00,VWS V14.01,2013-07-22 10:11:00,
2013-07-22 03:16:00,67.8,53.4,29.73,NE,42,0.0,0.0,60,0.00,,---,0.00,VWS V14.01,2013-07-22 10:16:00,
2013-07-22 03:21:00,67.7,53.3,29.73,NE,42,0.0,0.0,60,0.00,,---,0.00,VWS V14.01,2013-07-22 10:21:00,
2013-07-22 03:26:00,67.5,52.7,29.73,NE,42,0.0,0.0,59,0.00,,---,0.00,VWS V14.01,2013-07-22 10:26:00,
2013-07-22 03:31:00,67.4,52.6,29.73,NE,42,0.0,0.0,59,0.00,,---,0.00,VWS V14.01,2013-07-22 10:31:00,
2013-07-22 03:37:00,67.2,52.4,29.73,NE,42,0.0,0.0,59,0.00,,---,0.00,VWS V14.01,2013-07-22 10:37:00,
2013-07-22 03:42:00,67.0,52.7,29.73,NE,42,0.0,0.0,60,0.00,,---,0.00,VWS V14.01,2013-07-22 10:42:00,
2013-07-22 03:47:00,66.8,52.0,29.73,NE,42,0.0,0.0,59,0.00,,---,0.00,VWS V14.01,2013-07-22 10:47:00,
2013-07-22 03:52:00,66.7,51.5,29.73,NE,43,0.0,0.0,58,0.00,,---,0.00,VWS V14.01,2013-07-22 10:52:00,
2013-07-22 03:57:00,66.7,51.5,29.73,NE,42,0.0,0.0,58,0.00,,---,0.00,VWS V14.01,2013-07-22 10:57:00,
2013-07-22 04:02:00,66.6,51.4,29.73,NE,43,0.0,0.0,58,0.00,,---,0.00,VWS V14.01,2013-07-22 11:02:00,
2013-07-22 04:07:00,66.5,51.3,29.73,NE,42,0.0,0.0,58,0.00,,---,0.00,VWS V14.01,2013-07-22 11:07:00,
2013-07-22 04:12:00,66.5,51.3,29.72,NE,43,0.0,0.0,58,0.00,,---,0.00,VWS V14.01,2013-07-22 11:12:00,
2013-07-22 04:17:00,66.5,51.3,29.72,NE,42,0.0,0.0,58,0.00,,---,0.00,VWS V14.01,2013-07-22 11:17:00,
2013-07-22 04:22:00,66.4,50.2,29.72,NE,43,0.0,0.0,56,0.00,,---,0.00,VWS V14.01,2013-07-22 11:22:00,
2013-07-22 04:27:00,66.3,49.7,29.72,NE,42,0.0,0.0,55,0.00,,---,0.00,VWS V14.01,2013-07-22 11:27:00,
2013-07-22 04:32:00,66.2,50.5,29.73,NE,42,0.0,0.0,57,0.00,,---,0.00,VWS V14.01,2013-07-22 11:32:00,
2013-07-22 04:37:00,66.2,50.5,29.73,NE,42,0.0,0.0,57,0.00,,---,0.00,VWS V14.01,2013-07-22 11:37:00,
2013-07-22 04:43:00,66.2,50.5,29.73,NE,42,0.0,0.0,57,0.00,,---,0.00,VWS V14.01,2013-07-22 11:43:00,
2013-07-22 04:48:00,65.9,50.7,29.73,NE,42,0.0,0.0,58,0.00,,---,0.00,VWS V14.01,2013-07-22 11:48:00,
2013-07-22 04:53:00,65.7,50.1,29.73,NE,42,0.0,0.0,57,0.00,,---,0.00,VWS V14.01,2013-07-22 11:53:00,
2013-07-22 04:58:00,65.8,50.6,29.73,NE,42,0.0,0.0,58,0.00,,---,0.00,VWS V14.01,2013-07-22 11:58:00,
2013-07-22 05:03:00,65.7,50.5,29.73,NE,43,0.0,0.0,58,0.00,,---,0.00,VWS V14.01,2013-07-22 12:03:00,
2013-07-22 05:08:00,65.8,51.1,29.73,NE,43,0.0,0.0,59,0.00,,---,0.00,VWS V14.01,2013-07-22 12:08:00,
2013-07-22 05:13:00,65.8,51.1,29.74,NE,42,0.0,0.0,59,0.00,,---,0.00,VWS V14.01,2013-07-22 12:13:00,
2013-07-22 05:18:00,65.9,52.1,29.74,NE,42,0.0,0.0,61,0.00,,---,0.00,VWS V14.01,2013-07-22 12:18:00,
2013-07-22 05:23:00,65.9,52.1,29.74,NE,42,0.0,0.0,61,0.00,,---,0.00,VWS V14.01,2013-07-22 12:23:00,
2013-07-22 05:28:00,65.6,52.2,29.74,NE,42,0.0,0.0,62,0.00,,---,0.00,VWS V14.01,2013-07-22 12:28:00,
2013-07-22 05:33:00,65.4,52.5,29.74,NE,42,0.0,0.0,63,0.00,,---,0.00,VWS V14.01,2013-07-22 12:33:00,
2013-07-22 05:38:00,65.2,52.7,29.75,NE,42,0.0,0.0,64,0.00,,---,0.00,VWS V14.01,2013-07-22 12:38:00,
2013-07-22 05:43:00,65.1,53.1,29.75,NE,42,0.0,0.0,65,0.00,,---,0.00,VWS V14.01,2013-07-22 12:43:00,
2013-07-22 05:48:00,65.0,52.5,29.75,NE,42,0.0,0.0,64,0.00,,---,0.00,VWS V14.01,2013-07-22 12:48:00,
2013-07-22 05:53:00,64.9,52.0,29.75,NE,42,0.0,0.0,63,0.00,,---,0.00,VWS V14.01,2013-07-22 12:53:00,
2013-07-22 05:59:00,64.9,52.5,29.75,NE,42,0.0,0.0,64,0.00,,---,0.00,VWS V14.01,2013-07-22 12:59:00,
2013-07-22 06:04:00,64.8,52.3,29.75,NE,42,0.0,0.0,64,0.00,,---,0.00,VWS V14.01,2013-07-22 13:04:00,
2013-07-22 06:09:00,64.8,52.3,29.76,NE,42,0.0,0.0,64,0.00,,---,0.00,VWS V14.01,2013-07-22 13:09:00,
2013-07-22 06:14:00,64.9,52.5,29.76,NE,55,0.0,0.0,64,0.00,,---,0.00,VWS V14.01,2013-07-22 13:14:00,
2013-07-22 06:19:00,65.0,52.5,29.76,ESE,105,0.0,0.0,64,0.00,,---,0.00,VWS V14.01,2013-07-22 13:19:00,
2013-07-22 06:24:00,65.2,52.7,29.75,ESE,111,0.0,0.0,64,0.00,,---,0.00,VWS V14.01,2013-07-22 13:24:00,
2013-07-22 06:29:00,65.5,53.0,29.75,SW,218,0.0,0.0,64,0.00,,---,0.00,VWS V14.01,2013-07-22 13:29:00,
2013-07-22 06:34:00,65.7,53.2,29.76,South,188,0.0,0.0,64,0.00,,---,0.00,VWS V14.01,2013-07-22 13:34:00,
2013-07-22 06:39:00,66.1,53.6,29.75,SE,145,0.0,0.0,64,0.00,,---,0.00,VWS V14.01,2013-07-22 13:39:00,
2013-07-22 06:44:00,66.5,53.5,29.76,ESE,104,0.0,0.0,63,0.00,,---,0.00,VWS V14.01,2013-07-22 13:44:00,
2013-07-22 06:49:00,66.9,53.5,29.76,SE,145,0.0,0.0,62,0.00,,---,0.00,VWS V14.01,2013-07-22 13:49:00,
2013-07-22 06:54:00,67.2,53.8,29.76,ESE,119,0.0,0.0,62,0.00,,---,0.00,VWS V14.01,2013-07-22 13:54:00,
2013-07-22 06:59:00,67.5,53.1,29.76,North,355,0.0,0.0,60,0.00,,---,0.00,VWS V14.01,2013-07-22 13:59:00,
2013-07-22 07:04:00,67.8,53.4,29.76,East,96,2.0,0.0,60,0.00,,---,0.00,VWS V14.01,2013-07-22 14:04:00,
2013-07-22 07:10:00,68.2,53.3,29.77,East,99,1.0,0.0,59,0.00,,---,0.00,VWS V14.01,2013-07-22 14:10:00,
2013-07-22 07:15:00,68.4,53.1,29.77,SE,134,0.0,0.0,58,0.00,,---,0.00,VWS V14.01,2013-07-22 14:15:00,
2013-07-22 07:20:00,68.6,53.7,29.77,South,173,0.0,0.0,59,0.00,,---,0.00,VWS V14.01,2013-07-22 14:20:00,
2013-07-22 07:25:00,68.9,53.5,29.77,NE,53,0.0,0.0,58,0.00,,---,0.00,VWS V14.01,2013-07-22 14:25:00,
2013-07-22 07:30:00,69.1,54.2,29.77,North,11,0.0,0.0,59,0.00,,---,0.00,VWS V14.01,2013-07-22 14:30:00,
2013-07-22 07:35:00,69.3,53.9,29.78,SE,128,1.0,0.0,58,0.00,,---,0.00,VWS V14.01,2013-07-22 14:35:00,
2013-07-22 07:40:00,69.4,54.0,29.78,WSW,244,0.0,0.0,58,0.00,,---,0.00,VWS V14.01,2013-07-22 14:40:00,
2013-07-22 07:45:00,69.6,54.2,29.78,SE,127,0.0,0.0,58,0.00,,---,0.00,VWS V14.01,2013-07-22 14:45:00,
2013-07-22 07:50:00,69.7,53.8,29.79,ESE,111,0.0,0.0,57,0.00,,---,0.00,VWS V14.01,2013-07-22 14:50:00,
2013-07-22 07:55:00,69.9,54.5,29.79,SSE,148,0.0,0.0,58,0.00,,---,0.00,VWS V14.01,2013-07-22 14:55:00,
2013-07-22 08:00:00,70.1,54.7,29.79,ENE,59,0.0,0.0,58,0.00,,---,0.00,VWS V14.01,2013-07-22 15:00:00,
2013-07-22 08:05:00,70.3,54.8,29.79,SSE,157,2.0,0.0,58,0.00,,---,0.00,VWS V14.01,2013-07-22 15:05:00,
2013-07-22 08:10:00,70.4,54.5,29.80,West,279,1.0,0.0,57,0.00,,---,0.00,VWS V14.01,2013-07-22 15:10:00,
2013-07-22 08:15:00,70.6,54.6,29.80,SE,130,0.0,0.0,57,0.00,,---,0.00,VWS V14.01,2013-07-22 15:15:00,
2013-07-22 08:21:00,71.0,55.0,29.80,SE,142,0.0,0.0,57,0.00,,---,0.00,VWS V14.01,2013-07-22 15:21:00,
2013-07-22 08:26:00,71.5,54.0,29.80,WNW,286,0.0,0.0,54,0.00,,---,0.00,VWS V14.01,2013-07-22 15:26:00,
2013-07-22 08:31:00,72.0,54.5,29.81,SSE,153,0.0,0.0,54,0.00,,---,0.00,VWS V14.01,2013-07-22 15:31:00,
2013-07-22 08:36:00,72.6,54.5,29.81,SSE,157,0.0,0.0,53,0.00,,---,0.00,VWS V14.01,2013-07-22 15:36:00,
2013-07-22 08:41:00,72.9,54.8,29.80,SE,132,0.0,0.0,53,0.00,,---,0.00,VWS V14.01,2013-07-22 15:41:00,
2013-07-22 08:46:00,73.1,55.0,29.81,North,355,1.0,0.0,53,0.00,,---,0.00,VWS V14.01,2013-07-22 15:46:00,
2013-07-22 08:51:00,73.3,54.6,29.80,NW,310,0.0,0.0,52,0.00,,---,0.00,VWS V14.01,2013-07-22 15:51:00,
2013-07-22 08:56:00,73.6,54.9,29.80,NE,44,0.0,0.0,52,0.00,,---,0.00,VWS V14.01,2013-07-22 15:56:00,
2013-07-22 09:01:00,74.0,54.7,29.81,SSE,165,1.0,0.0,51,0.00,,---,0.00,VWS V14.01,2013-07-22 16:01:00,
2013-07-22 09:06:00,74.2,54.4,29.81,South,178,0.0,0.0,50,0.00,,---,0.00,VWS V14.01,2013-07-22 16:06:00,
2013-07-22 09:11:00,74.5,54.1,29.81,South,190,0.0,0.0,49,0.00,,---,0.00,VWS V14.01,2013-07-22 16:11:00,
2013-07-22 09:16:00,74.9,55.0,29.81,West,269,0.0,0.0,50,0.00,,---,0.00,VWS V14.01,2013-07-22 16:16:00,
2013-07-22 09:21:00,75.2,53.6,29.80,NNW,334,1.0,0.0,47,0.00,,---,0.00,VWS V14.01,2013-07-22 16:21:00,
2013-07-22 09:26:00,75.4,54.4,29.80,NW,304,0.0,0.0,48,0.00,,---,0.00,VWS V14.01,2013-07-22 16:26:00,
2013-07-22 09:31:00,75.7,54.1,29.80,SW,217,0.0,0.0,47,0.00,,---,0.00,VWS V14.01,2013-07-22 16:31:00,
2013-07-22 09:36:00,76.0,53.2,29.80,South,183,0.0,0.0,45,0.00,,---,0.00,VWS V14.01,2013-07-22 16:36:00,
2013-07-22 09:42:00,76.4,52.9,29.80,North,355,0.0,0.0,44,0.00,,---,0.00,VWS V14.01,2013-07-22 16:42:00,
2013-07-22 09:47:00,76.6,51.8,29.80,North,355,0.0,0.0,42,0.00,,---,0.00,VWS V14.01,2013-07-22 16:47:00,
2013-07-22 09:52:00,76.6,52.5,29.80,NW,319,1.0,0.0,43,0.00,,---,0.00,VWS V14.01,2013-07-22 16:52:00,
2013-07-22 09:57:00,76.7,53.8,29.81,North,355,1.0,0.0,45,0.00,,---,0.00,VWS V14.01,2013-07-22 16:57:00,
2013-07-22 10:02:00,76.9,53.3,29.80,NNW,333,0.0,0.0,44,0.00,,---,0.00,VWS V14.01,2013-07-22 17:02:00,
2013-07-22 10:07:00,77.3,53.1,29.80,NNW,347,0.0,0.0,43,0.00,,---,0.00,VWS V14.01,2013-07-22 17:07:00,
2013-07-22 10:12:00,77.5,52.6,29.80,North,349,1.0,0.0,42,0.00,,---,0.00,VWS V14.01,2013-07-22 17:12:00,
2013-07-22 10:17:00,77.7,53.5,29.80,NNE,15,1.0,0.0,43,0.00,,---,0.00,VWS V14.01,2013-07-22 17:17:00,
2013-07-22 10:22:00,78.0,53.7,29.80,North,349,0.0,0.0,43,0.00,,---,0.00,VWS V14.01,2013-07-22 17:22:00,
2013-07-22 10:27:00,78.3,52.7,29.80,SW,221,0.0,0.0,41,0.00,,---,0.00,VWS V14.01,2013-07-22 17:27:00,
2013-07-22 10:32:00,78.6,53.0,29.80,NW,313,0.0,0.0,41,0.00,,---,0.00,VWS V14.01,2013-07-22 17:32:00,
2013-07-22 10:37:00,79.3,52.2,29.80,NNE,19,1.0,0.0,39,0.00,,---,0.00,VWS V14.01,2013-07-22 17:37:00,
2013-07-22 10:42:00,79.7,52.6,29.80,North,355,0.0,0.0,39,0.00,,---,0.00,VWS V14.01,2013-07-22 17:42:00,
2013-07-22 10:47:00,79.9,50.6,29.80,NE,40,0.0,0.0,36,0.00,,---,0.00,VWS V14.01,2013-07-22 17:47:00,
2013-07-22 10:52:00,80.1,51.5,29.80,West,271,1.0,0.0,37,0.00,,---,0.00,VWS V14.01,2013-07-22 17:52:00,
2013-07-22 10:57:00,80.7,52.8,29.80,NW,317,1.0,0.0,38,0.00,,---,0.00,VWS V14.01,2013-07-22 17:57:00,
2013-07-22 11:03:00,81.7,51.4,29.80,NW,309,0.0,0.0,35,0.00,,---,0.00,VWS V14.01,2013-07-22 18:03:00,
2013-07-22 11:08:00,82.3,51.9,29.80,WSW,242,2.0,0.0,35,0.00,,---,0.00,VWS V14.01,2013-07-22 18:08:00,
2013-07-22 11:13:00,82.5,51.3,29.80,NNE,16,2.0,0.0,34,0.00,,---,0.00,VWS V14.01,2013-07-22 18:13:00,
2013-07-22 11:18:00,83.4,51.3,29.79,NNE,15,0.0,0.0,33,0.00,,---,0.00,VWS V14.01,2013-07-22 18:18:00,
2013-07-22 11:23:00,84.5,53.1,29.79,NW,313,0.0,0.0,34,0.00,,---,0.00,VWS V14.01,2013-07-22 18:23:00,
2013-07-22 11:28:00,85.5,51.4,29.79,NNE,12,0.0,0.0,31,0.00,,---,0.00,VWS V14.01,2013-07-22 18:28:00,
2013-07-22 11:34:00,86.0,51.9,29.79,NW,310,0.0,0.0,31,0.00,,---,0.00,VWS V14.01,2013-07-22 18:34:00,
2013-07-22 11:39:00,86.5,50.5,29.79,SSW,193,0.0,0.0,29,0.00,,---,0.00,VWS V14.01,2013-07-22 18:39:00,
2013-07-22 11:45:00,86.8,52.6,29.79,NW,312,0.0,0.0,31,0.00,,---,0.00,VWS V14.01,2013-07-22 18:45:00,
2013-07-22 11:50:00,87.0,51.8,29.79,WNW,292,0.0,0.0,30,0.00,,---,0.00,VWS V14.01,2013-07-22 18:50:00,
2013-07-22 11:55:00,87.0,51.8,29.79,ENE,67,3.0,0.0,30,0.00,,---,0.00,VWS V14.01,2013-07-22 18:55:00,
2013-07-22 12:00:00,86.9,52.7,29.79,WNW,301,2.0,0.0,31,0.00,,---,0.00,VWS V14.01,2013-07-22 19:00:00,
2013-07-22 12:05:00,86.5,51.4,29.79,North,355,0.0,0.0,30,0.00,,---,0.00,VWS V14.01,2013-07-22 19:05:00,
2013-07-22 12:11:00,86.5,53.2,29.79,NNW,329,1.0,0.0,32,0.00,,---,0.00,VWS V14.01,2013-07-22 19:11:00,
2013-07-22 12:16:00,86.8,52.6,29.79,NNE,21,0.0,0.0,31,0.00,,---,0.00,VWS V14.01,2013-07-22 19:16:00,
2013-07-22 12:21:00,87.4,53.1,29.79,NW,311,0.0,0.0,31,0.00,,---,0.00,VWS V14.01,2013-07-22 19:21:00,
2013-07-22 12:26:00,87.4,54.0,29.79,WNW,288,0.0,0.0,32,0.00,,---,0.00,VWS V14.01,2013-07-22 19:26:00,
2013-07-22 12:31:00,87.7,53.3,29.79,NNE,23,0.0,0.0,31,0.00,,---,0.00,VWS V14.01,2013-07-22 19:31:00,
2013-07-22 12:36:00,88.2,52.0,29.78,NE,55,1.0,0.0,29,0.00,,---,0.00,VWS V14.01,2013-07-22 19:36:00,
2013-07-22 12:41:00,87.9,54.4,29.78,NNE,22,1.0,0.0,32,0.00,,---,0.00,VWS V14.01,2013-07-22 19:41:00,
2013-07-22 12:46:00,87.8,53.4,29.78,WNW,290,2.0,0.0,31,0.00,,---,0.00,VWS V14.01,2013-07-22 19:46:00,
2013-07-22 12:51:00,87.7,54.2,29.78,NNE,25,1.0,0.0,32,0.00,,---,0.00,VWS V14.01,2013-07-22 19:51:00,
2013-07-22 12:56:00,88.3,54.7,29.78,NW,317,0.0,0.0,32,0.00,,---,0.00,VWS V14.01,2013-07-22 19:56:00,
2013-07-22 13:01:00,88.8,55.2,29.78,NE,48,0.0,0.0,32,0.00,,---,0.00,VWS V14.01,2013-07-22 20:01:00,
2013-07-22 13:06:00,88.6,52.3,29.77,SE,135,0.0,0.0,29,0.00,,---,0.00,VWS V14.01,2013-07-22 20:06:00,
2013-07-22 13:12:00,88.6,54.1,29.77,ENE,65,1.0,0.0,31,0.00,,---,0.00,VWS V14.01,2013-07-22 20:12:00,
2013-07-22 13:17:00,88.6,53.2,29.77,NE,40,0.0,0.0,30,0.00,,---,0.00,VWS V14.01,2013-07-22 20:17:00,
2013-07-22 13:18:00,88.7,54.2,29.77,NE,40,0.0,0.0,31,0.00,,---,0.00,VWS V14.01,2013-07-22 20:18:00,
2013-07-22 13:23:00,88.8,53.4,29.77,West,271,0.0,0.0,30,0.00,,---,0.00,VWS V14.01,2013-07-22 20:23:00,
2013-07-22 13:28:00,89.4,53.9,29.77,NNE,29,1.0,0.0,30,0.00,,---,0.00,VWS V14.01,2013-07-22 20:28:00,
2013-07-22 13:33:00,89.7,52.3,29.77,East,90,1.0,0.0,28,0.00,,---,0.00,VWS V14.01,2013-07-22 20:33:00,
2013-07-22 13:39:00,89.7,53.2,29.77,West,261,0.0,0.0,29,0.00,,---,0.00,VWS V14.01,2013-07-22 20:39:00,
2013-07-22 13:44:00,90.0,53.5,29.77,West,276,0.0,0.0,29,0.00,,---,0.00,VWS V14.01,2013-07-22 20:44:00,
2013-07-22 13:49:00,90.4,54.8,29.77,WSW,242,0.0,0.0,30,0.00,,---,0.00,VWS V14.01,2013-07-22 20:49:00,
2013-07-22 13:54:00,90.5,53.0,29.77,NNW,336,0.0,0.0,28,0.00,,---,0.00,VWS V14.01,2013-07-22 20:54:00,
2013-07-22 13:59:00,90.9,54.3,29.77,NNW,329,0.0,0.0,29,0.00,,---,0.00,VWS V14.01,2013-07-22 20:59:00,
2013-07-22 14:04:00,91.4,52.8,29.77,NE,38,1.0,0.0,27,0.00,,---,0.00,VWS V14.01,2013-07-22 21:04:00,
2013-07-22 14:09:00,92.2,53.4,29.76,ENE,69,0.0,0.0,27,0.00,,---,0.00,VWS V14.01,2013-07-22 21:09:00,
2013-07-22 14:14:00,92.8,53.9,29.76,NNE,20,0.0,0.0,27,0.00,,---,0.00,VWS V14.01,2013-07-22 21:14:00,
2013-07-22 14:19:00,93.2,55.3,29.76,NE,36,0.0,0.0,28,0.00,,---,0.00,VWS V14.01,2013-07-22 21:19:00,
2013-07-22 14:24:00,93.6,51.4,29.76,NNE,17,1.0,0.0,24,0.00,,---,0.00,VWS V14.01,2013-07-22 21:24:00,
2013-07-22 14:29:00,93.3,51.2,29.76,ENE,72,2.0,0.0,24,0.00,,---,0.00,VWS V14.01,2013-07-22 21:29:00,
2013-07-22 14:35:00,92.4,50.4,29.76,ENE,69,1.0,0.0,24,0.00,,---,0.00,VWS V14.01,2013-07-22 21:35:00,
2013-07-22 14:40:00,91.7,50.9,29.76,East,80,1.0,0.0,25,0.00,,---,0.00,VWS V14.01,2013-07-22 21:40:00,
2013-07-22 14:45:00,91.5,51.8,29.76,NE,54,0.0,0.0,26,0.00,,---,0.00,VWS V14.01,2013-07-22 21:45:00,
2013-07-22 14:50:00,91.7,52.0,29.75,East,96,2.0,0.0,26,0.00,,---,0.00,VWS V14.01,2013-07-22 21:50:00,
2013-07-22 14:55:00,92.0,53.3,29.75,WNW,296,0.0,0.0,27,0.00,,---,0.00,VWS V14.01,2013-07-22 21:55:00,
2013-07-22 15:00:00,92.3,53.5,29.75,NE,55,0.0,0.0,27,0.00,,---,0.00,VWS V14.01,2013-07-22 22:00:00,
2013-07-22 15:05:00,92.7,52.8,29.75,SE,131,4.0,0.0,26,0.00,,---,0.00,VWS V14.01,2013-07-22 22:05:00,
2013-07-22 15:10:00,93.0,53.1,29.75,West,268,2.0,0.0,26,0.00,,---,0.00,VWS V14.01,2013-07-22 22:10:00,
2013-07-22 15:15:00,93.1,51.0,29.75,ENE,63,1.0,0.0,24,0.00,,---,0.00,VWS V14.01,2013-07-22 22:15:00,
2013-07-22 15:20:00,92.9,51.9,29.75,NE,40,0.0,0.0,25,0.00,,---,0.00,VWS V14.01,2013-07-22 22:20:00,
2013-07-22 15:26:00,92.8,50.7,29.75,ENE,57,1.0,0.0,24,0.00,,---,0.00,VWS V14.01,2013-07-22 22:26:00,
2013-07-22 15:31:00,92.5,53.7,29.75,NE,42,0.0,0.0,27,0.00,,---,0.00,VWS V14.01,2013-07-22 22:31:00,
2013-07-22 15:36:00,92.6,52.7,29.75,NNE,29,0.0,0.0,26,0.00,,---,0.00,VWS V14.01,2013-07-22 22:36:00,
2013-07-22 15:41:00,92.6,51.7,29.75,NNE,31,1.0,0.0,25,0.00,,---,0.00,VWS V14.01,2013-07-22 22:41:00,
2013-07-22 15:46:00,92.6,52.7,29.75,North,11,0.0,0.0,26,0.00,,---,0.00,VWS V14.01,2013-07-22 22:46:00,
2013-07-22 15:51:00,92.7,49.5,29.74,NE,53,2.0,0.0,23,0.00,,---,0.00,VWS V14.01,2013-07-22 22:51:00,
2013-07-22 15:56:00,92.7,50.7,29.74,WNW,286,2.0,0.0,24,0.00,,---,0.00,VWS V14.01,2013-07-22 22:56:00,
2013-07-22 16:01:00,92.7,48.3,29.74,West,263,1.0,0.0,22,0.00,,---,0.00,VWS V14.01,2013-07-22 23:01:00,
2013-07-22 16:06:00,92.8,50.7,29.74,NNW,334,0.0,0.0,24,0.00,,---,0.00,VWS V14.01,2013-07-22 23:06:00,
2013-07-22 16:11:00,93.1,49.8,29.74,NNE,16,0.0,0.0,23,0.00,,---,0.00,VWS V14.01,2013-07-22 23:11:00,
2013-07-22 16:16:00,93.2,48.7,29.74,NE,51,0.0,0.0,22,0.00,,---,0.00,VWS V14.01,2013-07-22 23:16:00,
2013-07-22 16:22:00,93.3,48.8,29.74,NE,39,0.0,0.0,22,0.00,,---,0.00,VWS V14.01,2013-07-22 23:22:00,
2013-07-22 16:27:00,93.5,51.3,29.74,North,9,1.0,0.0,24,0.00,,---,0.00,VWS V14.01,2013-07-22 23:27:00,
2013-07-22 16:32:00,93.7,47.9,29.74,NE,39,0.0,0.0,21,0.00,,---,0.00,VWS V14.01,2013-07-22 23:32:00,
2013-07-22 16:37:00,93.7,47.9,29.74,NNE,26,0.0,0.0,21,0.00,,---,0.00,VWS V14.01,2013-07-22 23:37:00,
2013-07-22 16:42:00,93.8,48.0,29.74,NE,34,0.0,0.0,21,0.00,,---,0.00,VWS V14.01,2013-07-22 23:42:00,
2013-07-22 16:47:00,93.7,47.9,29.74,NE,36,0.0,0.0,21,0.00,,---,0.00,VWS V14.01,2013-07-22 23:47:00,
2013-07-22 16:52:00,93.6,50.3,29.74,WNW,303,0.0,0.0,23,0.00,,---,0.00,VWS V14.01,2013-07-22 23:52:00,
2013-07-22 16:57:00,93.6,49.1,29.74,NNE,24,0.0,0.0,22,0.00,,---,0.00,VWS V14.01,2013-07-22 23:57:00,
2013-07-22 17:02:00,93.5,49.0,29.74,ENE,61,0.0,0.0,22,0.00,,---,0.00,VWS V14.01,2013-07-23 00:02:00,
2013-07-22 17:07:00,93.5,49.0,29.74,NE,49,0.0,0.0,22,0.00,,---,0.00,VWS V14.01,2013-07-23 00:07:00,
2013-07-22 17:12:00,93.6,50.3,29.74,NNE,33,0.0,0.0,23,0.00,,---,0.00,VWS V14.01,2013-07-23 00:12:00,
2013-07-22 17:17:00,93.7,55.7,29.74,ENE,67,0.0,0.0,28,0.00,,---,0.00,VWS V14.01,2013-07-23 00:17:00,
2013-07-22 17:22:00,93.5,51.3,29.74,WNW,295,2.0,0.0,24,0.00,,---,0.00,VWS V14.01,2013-07-23 00:22:00,
2013-07-22 17:27:00,93.3,53.3,29.74,West,273,2.0,0.0,26,0.00,,---,0.00,VWS V14.01,2013-07-23 00:27:00,
2013-07-22 17:33:00,92.9,54.0,29.74,North,5,0.0,0.0,27,0.00,,---,0.00,VWS V14.01,2013-07-23 00:33:00,
2013-07-22 17:38:00,92.5,54.7,29.75,NW,321,0.0,0.0,28,0.00,,---,0.00,VWS V14.01,2013-07-23 00:38:00,
2013-07-22 17:43:00,91.9,54.2,29.75,NW,311,0.0,0.0,28,0.00,,---,0.00,VWS V14.01,2013-07-23 00:43:00,
2013-07-22 17:48:00,91.1,48.2,29.75,NW,316,2.0,0.0,23,0.00,,---,0.00,VWS V14.01,2013-07-23 00:48:00,
2013-07-22 17:53:00,90.3,47.5,29.75,WSW,254,2.0,0.0,23,0.00,,---,0.00,VWS V14.01,2013-07-23 00:53:00,
2013-07-22 17:58:00,89.5,48.0,29.75,WSW,242,0.0,0.0,24,0.00,,---,0.00,VWS V14.01,2013-07-23 00:58:00,
2013-07-22 18:03:00,89.0,45.3,29.75,West,269,1.0,0.0,22,0.00,,---,0.00,VWS V14.01,2013-07-23 01:03:00,
2013-07-22 18:08:00,88.6,43.7,29.74,NNW,327,2.0,0.0,21,0.00,,---,0.00,VWS V14.01,2013-07-23 01:08:00,
2013-07-22 18:13:00,88.4,42.3,29.74,NE,36,2.0,0.0,20,0.00,,---,0.00,VWS V14.01,2013-07-23 01:13:00,
2013-07-22 18:18:00,88.2,42.1,29.75,NW,320,2.0,0.0,20,0.00,,---,0.00,VWS V14.01,2013-07-23 01:18:00,
2013-07-22 18:23:00,87.9,40.5,29.75,WNW,286,3.0,0.0,19,0.00,,---,0.00,VWS V14.01,2013-07-23 01:23:00,
2013-07-22 18:28:00,87.5,41.5,29.74,WNW,285,0.0,0.0,20,0.00,,---,0.00,VWS V14.01,2013-07-23 01:28:00,
2013-07-22 18:33:00,87.2,43.8,29.74,NNW,348,0.0,0.0,22,0.00,,---,0.00,VWS V14.01,2013-07-23 01:33:00,
2013-07-22 18:39:00,87.0,43.6,29.75,NW,323,1.0,0.0,22,0.00,,---,0.00,VWS V14.01,2013-07-23 01:39:00,
2013-07-22 18:44:00,86.8,43.4,29.75,NW,309,0.0,0.0,22,0.00,,---,0.00,VWS V14.01,2013-07-23 01:44:00,
2013-07-22 18:49:00,86.6,43.3,29.75,West,273,0.0,0.0,22,0.00,,---,0.00,VWS V14.01,2013-07-23 01:49:00,
2013-07-22 18:54:00,86.3,46.4,29.74,WNW,291,0.0,0.0,25,0.00,,---,0.00,VWS V14.01,2013-07-23 01:54:00,
2013-07-22 18:59:00,86.3,46.4,29.74,NW,315,0.0,0.0,25,0.00,,---,0.00,VWS V14.01,2013-07-23 01:59:00,
2013-07-22 19:04:00,86.1,46.2,29.75,WNW,298,0.0,0.0,25,0.00,,---,0.00,VWS V14.01,2013-07-23 02:04:00,
2013-07-22 19:09:00,85.9,48.1,29.75,WNW,298,1.0,0.0,27,0.00,,---,0.00,VWS V14.01,2013-07-23 02:09:00,
2013-07-22 19:14:00,85.6,46.8,29.75,NW,317,0.0,0.0,26,0.00,,---,0.00,VWS V14.01,2013-07-23 02:14:00,
2013-07-22 19:19:00,85.2,47.5,29.76,NNW,327,1.0,0.0,27,0.00,,---,0.00,VWS V14.01,2013-07-23 02:19:00,
2013-07-22 19:24:00,84.7,48.0,29.76,West,275,2.0,0.0,28,0.00,,---,0.00,VWS V14.01,2013-07-23 02:24:00,
2013-07-22 19:29:00,84.2,46.6,29.76,West,280,0.0,0.0,27,0.00,,---,0.00,VWS V14.01,2013-07-23 02:29:00,
2013-07-22 19:34:00,83.8,45.3,29.77,West,273,0.0,0.0,26,0.00,,---,0.00,VWS V14.01,2013-07-23 02:34:00,
2013-07-22 19:39:00,83.3,44.9,29.77,NNW,329,0.0,0.0,26,0.00,,---,0.00,VWS V14.01,2013-07-23 02:39:00,
2013-07-22 19:44:00,82.7,44.4,29.77,NW,323,0.0,0.0,26,0.00,,---,0.00,VWS V14.01,2013-07-23 02:44:00,
2013-07-22 19:50:00,82.3,41.9,29.77,WSW,255,0.0,0.0,24,0.00,,---,0.00,VWS V14.01,2013-07-23 02:50:00,
2013-07-22 19:55:00,81.9,42.7,29.77,West,271,0.0,0.0,25,0.00,,---,0.00,VWS V14.01,2013-07-23 02:55:00,
2013-07-22 20:00:00,81.5,44.3,29.78,West,265,0.0,0.0,27,0.00,,---,0.00,VWS V14.01,2013-07-23 03:00:00,
2013-07-22 20:05:00,81.1,43.0,29.79,West,279,0.0,0.0,26,0.00,,---,0.00,VWS V14.01,2013-07-23 03:05:00,
2013-07-22 20:10:00,80.8,45.6,29.79,North,351,0.0,0.0,29,0.00,,---,0.00,VWS V14.01,2013-07-23 03:10:00,
2013-07-22 20:15:00,80.5,43.5,29.79,NNE,24,0.0,0.0,27,0.00,,---,0.00,VWS V14.01,2013-07-23 03:15:00,
2013-07-22 20:20:00,80.3,43.3,29.79,NNW,337,0.0,0.0,27,0.00,,---,0.00,VWS V14.01,2013-07-23 03:20:00,
2013-07-22 20:25:00,80.0,42.1,29.79,WNW,283,0.0,0.0,26,0.00,,---,0.00,VWS V14.01,2013-07-23 03:25:00,
2013-07-22 20:30:00,79.9,43.0,29.80,ESE,109,0.0,0.0,27,0.00,,---,0.00,VWS V14.01,2013-07-23 03:30:00,
2013-07-22 20:35:00,79.7,43.8,29.80,East,90,0.0,0.0,28,0.00,,---,0.00,VWS V14.01,2013-07-23 03:35:00,
2013-07-22 20:40:00,79.6,43.7,29.80,ESE,118,0.0,0.0,28,0.00,,---,0.00,VWS V14.01,2013-07-23 03:40:00,
2013-07-22 20:45:00,79.4,41.6,29.80,ESE,118,0.0,0.0,26,0.00,,---,0.00,VWS V14.01,2013-07-23 03:45:00,
2013-07-22 20:50:00,79.3,42.5,29.80,ESE,117,0.0,0.0,27,0.00,,---,0.00,VWS V14.01,2013-07-23 03:50:00,
2013-07-22 20:55:00,79.2,43.3,29.80,WNW,296,0.0,0.0,28,0.00,,---,0.00,VWS V14.01,2013-07-23 03:55:00,
2013-07-22 21:00:00,79.1,44.2,29.80,North,11,3.0,0.0,29,0.00,,---,0.00,VWS V14.01,2013-07-23 04:00:00,
2013-07-22 21:01:00,79.1,43.2,29.80,SSE,153,1.0,0.0,28,0.00,,---,0.00,VWS V14.01,2013-07-23 04:01:00,
2013-07-22 21:02:00,79.1,42.3,29.80,SSE,147,0.0,0.0,27,0.00,,---,0.00,VWS V14.01,2013-07-23 04:02:00,
2013-07-22 21:05:00,78.9,43.1,29.81,NNE,14,0.0,0.0,28,0.00,,---,0.00,VWS V14.01,2013-07-23 04:05:00,
2013-07-22 21:10:00,78.7,43.8,29.81,South,169,0.0,0.0,29,0.00,,---,0.00,VWS V14.01,2013-07-23 04:10:00,
2013-07-22 21:15:00,78.6,44.6,29.81,SE,131,0.0,0.0,30,0.00,,---,0.00,VWS V14.01,2013-07-23 04:15:00,
2013-07-22 21:20:00,78.5,45.4,29.82,ESE,109,0.0,0.0,31,0.00,,---,0.00,VWS V14.01,2013-07-23 04:20:00,
2013-07-22 21:25:00,78.4,47.0,29.82,ESE,104,0.0,0.0,33,0.00,,---,0.00,VWS V14.01,2013-07-23 04:25:00,
2013-07-22 21:30:00,78.3,46.0,29.82,ESE,104,0.0,0.0,32,0.00,,---,0.00,VWS V14.01,2013-07-23 04:30:00,
2013-07-22 21:35:00,78.1,46.7,29.82,ESE,104,0.0,0.0,33,0.00,,---,0.00,VWS V14.01,2013-07-23 04:35:00,
2013-07-22 21:40:00,77.9,45.7,29.82,ESE,103,0.0,0.0,32,0.00,,---,0.00,VWS V14.01,2013-07-23 04:40:00,
2013-07-22 21:46:00,77.7,44.7,29.82,ESE,103,0.0,0.0,31,0.00,,---,0.00,VWS V14.01,2013-07-23 04:46:00,
2013-07-22 21:51:00,77.5,45.3,29.82,ESE,104,0.0,0.0,32,0.00,,---,0.00,VWS V14.01,2013-07-23 04:51:00,
2013-07-22 21:56:00,77.2,45.1,29.82,ESE,103,0.0,0.0,32,0.00,,---,0.00,VWS V14.01,2013-07-23 04:56:00,
2013-07-22 22:01:00,77.0,45.7,29.82,ESE,103,0.0,0.0,33,0.00,,---,0.00,VWS V14.01,2013-07-23 05:01:00,
2013-07-22 22:06:00,76.9,45.6,29.82,ESE,103,0.0,0.0,33,0.00,,---,0.00,VWS V14.01,2013-07-23 05:06:00,
2013-07-22 22:11:00,76.8,47.1,29.82,ESE,104,0.0,0.0,35,0.00,,---,0.00,VWS V14.01,2013-07-23 05:11:00,
2013-07-22 22:16:00,76.7,47.0,29.82,ESE,103,0.0,0.0,35,0.00,,---,0.00,VWS V14.01,2013-07-23 05:16:00,
2013-07-22 22:21:00,76.6,46.2,29.81,ESE,103,0.0,0.0,34,0.00,,---,0.00,VWS V14.01,2013-07-23 05:21:00,
2013-07-22 22:26:00,76.6,47.7,29.81,ESE,103,0.0,0.0,36,0.00,,---,0.00,VWS V14.01,2013-07-23 05:26:00,
2013-07-22 22:31:00,76.5,46.8,29.81,ESE,104,0.0,0.0,35,0.00,,---,0.00,VWS V14.01,2013-07-23 05:31:00,
2013-07-22 22:36:00,76.3,47.4,29.81,ESE,103,0.0,0.0,36,0.00,,---,0.00,VWS V14.01,2013-07-23 05:36:00,
2013-07-22 22:41:00,76.3,48.1,29.81,ESE,103,0.0,0.0,37,0.00,,---,0.00,VWS V14.01,2013-07-23 05:41:00,
2013-07-22 22:46:00,76.2,48.0,29.81,ESE,103,0.0,0.0,37,0.00,,---,0.00,VWS V14.01,2013-07-23 05:46:00,
2013-07-22 22:51:00,76.0,47.9,29.80,ESE,104,0.0,0.0,37,0.00,,---,0.00,VWS V14.01,2013-07-23 05:51:00,
2013-07-22 22:57:00,75.8,47.7,29.80,ESE,103,0.0,0.0,37,0.00,,---,0.00,VWS V14.01,2013-07-23 05:57:00,
2013-07-22 23:02:00,75.5,46.7,29.81,ESE,104,0.0,0.0,36,0.00,,---,0.00,VWS V14.01,2013-07-23 06:02:00,
2013-07-22 23:07:00,75.4,48.8,29.81,ESE,103,0.0,0.0,39,0.00,,---,0.00,VWS V14.01,2013-07-23 06:07:00,
2013-07-22 23:12:00,75.2,47.2,29.81,ESE,104,0.0,0.0,37,0.00,,---,0.00,VWS V14.01,2013-07-23 06:12:00,
2013-07-22 23:17:00,74.9,46.9,29.81,ESE,103,0.0,0.0,37,0.00,,---,0.00,VWS V14.01,2013-07-23 06:17:00,
2013-07-22 23:22:00,74.8,47.5,29.81,ESE,104,0.0,0.0,38,0.00,,---,0.00,VWS V14.01,2013-07-23 06:22:00,
2013-07-22 23:27:00,74.4,46.5,29.80,ESE,103,0.0,0.0,37,0.00,,---,0.00,VWS V14.01,2013-07-23 06:27:00,
2013-07-22 23:32:00,74.1,46.9,29.80,ESE,104,0.0,0.0,38,0.00,,---,0.00,VWS V14.01,2013-07-23 06:32:00,
2013-07-22 23:37:00,73.9,47.4,29.80,ESE,104,0.0,0.0,39,0.00,,---,0.00,VWS V14.01,2013-07-23 06:37:00,
2013-07-22 23:42:00,73.8,48.0,29.81,ESE,104,0.0,0.0,40,0.00,,---,0.00,VWS V14.01,2013-07-23 06:42:00,
2013-07-22 23:47:00,73.8,47.3,29.81,ESE,104,0.0,0.0,39,0.00,,---,0.00,VWS V14.01,2013-07-23 06:47:00,
2013-07-22 23:52:00,73.9,47.4,29.82,ESE,104,0.0,0.0,39,0.00,,---,0.00,VWS V14.01,2013-07-23 06:52:00,
2013-07-22 23:57:00,73.9,48.1,29.82,ESE,103,0.0,0.0,40,0.00,,---,0.00,VWS V14.01,2013-07-23 06:57:00,